Вернуться в каталог

STARLINK-32424

АктивенСвязьVLEO
NORAD 61548·PAYLOAD·🇺🇸 United States

Запущен Oct 15, 2024 с Vandenberg Space Force Base

Loading…

Ближайшие Пролёты (ближайшие 24 часа)

TLE

СвежийSource: CelesTrak SupGP

Эпоха: Sep 14, 2026, 20:49 UTC

1 61548C 24184S   26257.86784722  .00033887  00000+0  10010-2 0  2578
2 61548  53.1579 212.0313 0001484 104.6292 344.7861 15.34380489    18

Отслеживайте STARLINK-32424 в реальном времени с AllMySat

Download on the App Store